Location: Arthez
(43.0833°N, 0.2500°W)
Time: 07:05:11
(UTC+00:00)

Cosmos 304 Rocket - Pass Details

Date: 03 June 2022
Orbit: 679 x 686 km, 74.0° (Epoch: 03 July)

Event Time Altitude Azimuth Distance (km) Brightness Sun altitude
Exits shadow 01:16:34 - 276° (W) 2,256 6.3 -22.2°
Reaches altitude 10° 01:17:15 10° 283° (WNW) 2,137 6.2 -22.2°
Maximum altitude 01:19:18 13° 309° (NW) 1,969 6.3 -22.1°
Drops below altitude 10° 01:21:22 10° 334° (NNW) 2,142 6.9 -21.9°
Sets 01:25:07 0° 4° (N) 3,063 8.4 -21.7°
